STARLINK-1739 (46363 NORAD) Tracking and Keplerian Element Data

This shows tracking and keplerian element data for the satellite.

Feedback or suggestion? Click here.




ElementValue
Catalog46363
NameSTARLINK-1739
Epoch Orbit178
Epoch Day268.91668981
Epoch Year2020
RAAN324.4833
Inclination53.0027
Eccentricity0.0001181
Argument of Perigee59.1866
Mean Anonmoly156.0518
Mean Motion15.62775701
Decay Rate-0.00013053
L11 46363U 20062AQ 20268.91668981 -.00013053 00000-0 -13682-3 0 9995
L22 46363 53.0027 324.4833 0001181 59.1866 156.0518 15.62775701 1787

Live tracking and technical data element details for STARLINK-1739 (NORAD 46363). STARLINK-1739 can be tracked NOW for your location showing map with azimuth and elevation plus other details from your city location.

Track the satellite on the map from your city or location and see movement details for azimuth, elevation, latitude, longitude, range, height, and movement on the map or in text.







IsCatalogInMostPopularTable: catalog: 46363, numindb: 3
Update: records affected: 1



GetName: 46363 STARLINK-1739

Hit Count: updated at: Mon, 28 Sep 2020 14:59:52 GMT